TimeMDT,TemperatureF,Dew PointF,Humidity,Sea Level PressureIn,VisibilityMPH,Wind Direction,Wind SpeedMPH,Gust SpeedMPH,PrecipitationIn,Events,Conditions,WindDirDegrees,DateUTC
12:53 AM,33.1,26.1,75,29.74,10.0,Calm,Calm,-,N/A,,Overcast,0,2013-03-21 06:53:00
1:53 AM,33.1,26.1,75,29.70,10.0,Calm,Calm,-,N/A,,Overcast,0,2013-03-21 07:53:00
2:53 AM,30.0,25.0,82,29.69,10.0,South,4.6,-,N/A,,Overcast,190,2013-03-21 08:53:00
3:53 AM,34.0,25.0,70,29.61,10.0,South,6.9,-,N/A,,Overcast,180,2013-03-21 09:53:00
4:53 AM,35.1,23.0,61,29.58,10.0,SSW,8.1,-,N/A,,Mostly Cloudy,210,2013-03-21 10:53:00
5:20 AM,33.8,26.6,75,29.76,2.0,NNW,10.4,-,0.00,Snow,Light Snow,340,2013-03-21 11:20:00
5:23 AM,32.0,28.4,87,29.77,1.2,NNW,11.5,-,0.00,Snow,Light Snow,330,2013-03-21 11:23:00
5:32 AM,30.2,28.4,93,29.77,0.8,North,4.6,-,0.01,Snow,Light Snow,360,2013-03-21 11:32:00
5:45 AM,30.2,28.4,93,29.76,0.5,Calm,Calm,-,0.03,Fog-Snow,Snow,0,2013-03-21 11:45:00
5:53 AM,30.9,28.9,92,29.64,0.8,Calm,Calm,-,0.04,Snow,Light Snow,0,2013-03-21 11:53:00
6:27 AM,30.2,30.2,100,29.75,1.5,Calm,Calm,-,0.04,Snow,Light Snow,0,2013-03-21 12:27:00
6:43 AM,30.2,30.2,100,29.76,0.5,Calm,Calm,-,0.07,Fog-Snow,Snow,0,2013-03-21 12:43:00
6:53 AM,30.9,28.9,92,29.65,0.5,North,5.8,-,0.10,Fog-Snow,Snow,360,2013-03-21 12:53:00
7:53 AM,30.9,30.0,96,29.65,1.5,Calm,Calm,-,0.14,Snow,Light Snow,0,2013-03-21 13:53:00
8:01 AM,30.2,30.2,100,29.76,2.0,Calm,Calm,-,0.00,Snow,Light Snow,0,2013-03-21 14:01:00
8:06 AM,30.2,30.2,100,29.76,2.0,Calm,Calm,-,0.00,Snow,Light Snow,0,2013-03-21 14:06:00
8:08 AM,30.2,30.2,100,29.76,1.5,Calm,Calm,-,0.00,Snow,Light Snow,0,2013-03-21 14:08:00
8:50 AM,32.0,30.2,93,29.75,6.0,Calm,Calm,-,0.02,Snow,Light Snow,0,2013-03-21 14:50:00
8:53 AM,32.0,30.9,96,29.64,5.0,Calm,Calm,-,0.02,Snow,Light Snow,0,2013-03-21 14:53:00
9:09 AM,32.0,28.4,87,29.76,3.0,Calm,Calm,-,0.00,,Overcast,0,2013-03-21 15:09:00
9:17 AM,32.0,30.2,93,29.76,1.0,Calm,Calm,-,0.00,Snow,Light Snow,0,2013-03-21 15:17:00
9:40 AM,32.0,30.2,93,29.73,6.0,Calm,Calm,-,0.01,Snow,Light Snow,0,2013-03-21 15:40:00
9:43 AM,32.0,30.2,93,29.73,6.0,Calm,Calm,-,0.01,Snow,Light Snow,0,2013-03-21 15:43:00
9:53 AM,32.0,30.0,92,29.62,6.0,South,3.5,-,0.01,,Mostly Cloudy,180,2013-03-21 15:53:00
10:48 AM,33.8,28.4,81,29.71,6.0,West,4.6,-,N/A,,Haze,280,2013-03-21 16:48:00
10:53 AM,34.0,28.9,82,29.60,3.0,WNW,5.8,-,0.00,Snow,Light Snow,290,2013-03-21 16:53:00
10:55 AM,33.8,28.4,81,29.72,2.0,NW,6.9,-,0.00,Snow,Light Snow,310,2013-03-21 16:55:00
11:04 AM,33.8,28.4,81,29.72,1.0,NW,9.2,-,0.00,Snow,Light Snow,320,2013-03-21 17:04:00
11:33 AM,32.0,30.2,93,29.71,0.8,Calm,Calm,-,0.04,Snow,Light Snow,0,2013-03-21 17:33:00
11:53 AM,30.9,28.9,92,29.62,0.5,WNW,4.6,-,0.05,Fog-Snow,Snow,300,2013-03-21 17:53:00
12:30 PM,33.8,30.2,87,29.70,1.0,Calm,Calm,-,0.04,Snow,Light Snow,0,2013-03-21 18:30:00
12:42 PM,30.2,28.4,93,29.73,0.2,NNW,15.0,32.2,0.05,Fog-Snow,Snow,330,2013-03-21 18:42:00
12:53 PM,28.9,27.0,92,29.66,0.2,North,-9999.0,-,0.06,Fog-Snow,Snow,0,2013-03-21 18:53:00
1:00 PM,28.4,26.6,93,29.75,0.2,NNW,17.3,34.5,0.00,Fog-Snow,Snow,330,2013-03-21 19:00:00
1:23 PM,-9999,-9999,N/A,-9999,-9999.0,North,-9999.0,-,N/A,,Unknown,0,2013-03-21 19:23:00
1:53 PM,28.0,24.1,85,29.73,-9999.0,North,-9999.0,-,N/A,,Unknown,0,2013-03-21 19:53:00
2:01 PM,30.2,24.8,80,29.79,4.0,NW,8.1,-,0.00,Snow,Light Snow,320,2013-03-21 20:01:00
2:23 PM,30.2,21.2,69,29.79,10.0,NE,6.9,-,0.00,,Overcast,40,2013-03-21 20:23:00
2:53 PM,32.0,19.9,61,29.68,10.0,NNW,10.4,-,0.00,,Overcast,340,2013-03-21 20:53:00
3:53 PM,34.0,19.0,54,29.66,10.0,North,5.8,-,N/A,,Overcast,350,2013-03-21 21:53:00
4:53 PM,32.0,19.9,61,29.67,8.0,Calm,Calm,-,N/A,,Mostly Cloudy,0,2013-03-21 22:53:00
5:53 PM,32.0,21.0,64,29.72,10.0,NNW,5.8,-,0.00,,Mostly Cloudy,330,2013-03-21 23:53:00
6:53 PM,28.9,24.1,82,29.77,10.0,North,6.9,-,N/A,,Mostly Cloudy,10,2013-03-22 00:53:00
7:53 PM,26.1,21.9,84,29.80,10.0,SSW,6.9,-,N/A,,Mostly Cloudy,200,2013-03-22 01:53:00
8:53 PM,24.1,19.9,84,29.83,10.0,SSE,5.8,-,N/A,,Mostly Cloudy,150,2013-03-22 02:53:00
9:53 PM,23.0,17.1,78,29.84,10.0,North,-9999.0,-,N/A,,Scattered Clouds,0,2013-03-22 03:53:00
10:53 PM,19.9,15.1,81,29.86,10.0,North,-9999.0,-,N/A,,Scattered Clouds,0,2013-03-22 04:53:00
11:53 PM,19.0,12.9,77,29.87,10.0,North,-9999.0,-,N/A,,Clear,0,2013-03-22 05:53:00